Location: Boiro
(42.6475°N, 8.8834°W)
Time: 05:24:34
(UTC+01:00)

Transit 4A - Pass Details

Date: 08 December 2021
Orbit: 864 x 980 km, 66.8° (Epoch: 17 January)

Event Time Altitude Azimuth Distance (km) Brightness Sun altitude
Rises 19:53:53 0° 211° (SSW) 3,447 11.6 -19.9°
Reaches altitude 10° 19:56:20 10° 213° (SSW) 2,523 10.8 -20.3°
Maximum altitude 20:02:11 82° 300° (WNW) 907 7.8 -21.4°
Enters shadow 20:05:36 27° 27° (NNE) 1,659 8.9 -22.0°
